Home > Weather > Kamloops > Past weeks

Flag for Canada Weather for the Past 2 Weeks in Kamloops, British Columbia, Canada

Now
28 °F

Passing clouds.


Feels Like: 21 °F
Forecast: 28 / 44 °F
Wind: 7 mph from East

Location: Kamloops

Current Time: Feb 9, 2016 at 8:02:47 AM

Latest Report: Feb 9, 2016 at 7:00 AM


Visibility: 40 mi

Pressure: 30.52 "Hg

Humidity: 86%

Dew point: 25 °F

Location of KamloopsLocation

Historic Weather in Kamloops — Graph

°F

Kamloops Temperature Yesterday

Maximum temperature yesterday: 37 °F (at 12:00 PM)
Minimum temperature yesterday: 32 °F (at 12:00 AM)
Average temperature yesterday: 34 °F

High & Low Weather Summary for the Past Weeks

 TemperatureHumidityPressure
High55 °F (Jan 28, 2:00 PM)100% (Jan 31, 6:00 AM)30.68 "Hg (Jan 31, 6:00 AM)
Low21 °F (Feb 3, 12:00 AM)34% (Feb 6, 3:00 PM)29.60 "Hg (Jan 29, 6:00 PM)
Average34 °F78%30.17 "Hg
* Reported Jan 25 6:00 AM — Feb 9 6:00 AM, Kamloops, Weather by CustomWeather, © 2016

Note: Actual official high and low records may vary slightly from our data, if they occured in-between our weather recording intervals... More about our weather records

Advertising

Kamloops Weather History for the Previous 24 Hours

 ConditionsComfort  
Time TempWeatherWind HumidityBarometerVisibility
6:00 AM
Tue, Feb 9
28 °FPassing clouds.9 mph93%30.53 "Hg40 mi
5:00 AM28 °FPassing clouds.5 mph93%30.55 "Hg40 mi
4:00 AM28 °FPassing clouds.6 mph93%30.56 "Hg40 mi
3:00 AM30 °FPassing clouds.7 mph86%30.58 "Hg40 mi
2:00 AM32 °FPassing clouds.7 mph87%30.60 "Hg40 mi
1:00 AM30 °FPassing clouds.9 mph93%30.60 "Hg40 mi
12:00 AM32 °FPassing clouds.9 mph80%30.61 "Hg40 mi
11:00 PM
Mon, Feb 8
32 °FPassing clouds.9 mph87%30.61 "Hg40 mi
10:00 PM34 °FPassing clouds.7 mph81%30.61 "Hg40 mi
9:00 PM34 °FPassing clouds.8 mph81%30.61 "Hg40 mi
8:00 PM34 °FPassing clouds.7 mph75%30.61 "Hg40 mi
7:00 PM34 °FPassing clouds.8 mph81%30.61 "Hg40 mi
6:00 PM36 °FPassing clouds.10 mph75%30.60 "Hg40 mi
5:00 PM36 °FPartly sunny.5 mph75%30.61 "Hg40 mi
4:00 PM37 °FPartly sunny.5 mph70%30.61 "Hg40 mi
3:00 PM37 °FPartly sunny.5 mph70%30.62 "Hg40 mi
2:00 PM37 °FPartly sunny.8 mph70%30.62 "Hg40 mi
1:00 PM37 °FBroken clouds.5 mph70%30.63 "Hg40 mi
12:00 PM37 °FMore clouds than sun.7 mph70%30.65 "Hg40 mi
11:00 AM36 °FMostly cloudy.7 mph70%30.67 "Hg40 mi
10:00 AM36 °FPartly sunny.6 mph70%30.68 "Hg40 mi
9:00 AM34 °FMostly cloudy.3 mph75%30.67 "Hg40 mi
8:00 AM34 °FPartly sunny.3 mph75%30.66 "Hg40 mi
Weather by CustomWeather, © 2016

See weather overviewHow to use our weather pages